Flag for Canada Weather past 2 weeks in Brantford, Ontario, Canada

Now
41 °F

Light rain. Overcast.


Feels Like: 36 °F
Forecast: 37 / 53 °F
Wind: 8 mph from Northwest

Location: Hamilton Airport

Current Time: Apr 27, 2015 at 5:48:25 AM

Latest Report: Apr 27, 2015 at 5:00 AM


Visibility: 15 mi

Pressure: 29.82 "Hg

Humidity: 81%

Dew point: 36 °F

Location of BrantfordLocation

Historic Weather in Brantford — Graph

°F

Brantford temperature yesterday

Maximum temperature yesterday: 52 °F (at 1:00 PM)
Minimum temperature yesterday: 34 °F (at 5:00 AM)
Average temperature yesterday: 44 °F

Past Weeks' High & Low Weather Summary

 TemperatureHumidityPressure
High75 °F (Apr 13, 3:00 PM)100% (Apr 17, 3:00 AM)30.41 "Hg (Apr 17, 3:00 AM)
Low27 °F (Apr 24, 4:00 AM)21% (Apr 18, 5:00 PM)29.36 "Hg (Apr 20, 4:00 PM)
Average46 °F63%29.96 "Hg
* Reported Apr 12 5:00 AM — Apr 27 5:00 AM, Brantford, Weather by CustomWeather, © 2015

Note: Actual official high and low records may vary slightly from our data, if they occured in-between our weather recording intervals... More about our weather records

Advertising

Brantford weather history for previous 24 hours

 ConditionsComfort  
Time TempWeatherWind HumidityBarometerVisibility
5:00 AM
Mon, Apr 27
41 °FLight rain. Overcast.8 mph81%29.82 "Hg15 mi
4:00 AM41 °FOvercast.2 mph76%29.81 "Hg15 mi
3:00 AM41 °FMostly cloudy.7 mph76%29.81 "Hg15 mi
2:00 AM41 °FMostly cloudy.9 mph70%29.82 "Hg15 mi
1:00 AM41 °FOvercast.6 mph70%29.83 "Hg15 mi
12:00 AM43 °FPassing clouds.9 mph66%29.84 "Hg15 mi
11:00 PM
Sun, Apr 26
43 °FPassing clouds.9 mph66%29.85 "Hg15 mi
10:00 PM43 °FPassing clouds.8 mph66%29.85 "Hg15 mi
9:00 PM43 °FScattered clouds.10 mph61%29.85 "Hg15 mi
8:00 PM46 °FBroken clouds.9 mph53%29.85 "Hg15 mi
7:00 PM48 °FPartly sunny.16 mph50%29.83 "Hg15 mi
6:00 PM50 °FPartly sunny.6 mph50%29.83 "Hg15 mi
5:00 PM52 °FBroken clouds.13 mph47%29.82 "Hg15 mi
4:00 PM50 °FBroken clouds.14 mph50%29.83 "Hg15 mi
3:00 PM52 °FBroken clouds.14 mph47%29.83 "Hg15 mi
2:00 PM52 °FPartly sunny.9 mph44%29.83 "Hg15 mi
1:00 PM52 °FPartly sunny.16 mph44%29.83 "Hg15 mi
12:00 PM50 °FPartly sunny.8 mph47%29.85 "Hg15 mi
11:00 AM48 °FPassing clouds.5 mph50%29.86 "Hg15 mi
10:00 AM46 °FPassing clouds.7 mph57%29.87 "Hg15 mi
9:00 AM45 °FScattered clouds.13 mph61%29.87 "Hg15 mi
8:00 AM41 °FPassing clouds.12 mph66%29.86 "Hg15 mi
7:00 AM37 °FPassing clouds.9 mph70%29.85 "Hg15 mi
6:00 AM36 °FPassing clouds.9 mph70%29.83 "Hg15 mi
5:00 AM34 °FPassing clouds.9 mph75%29.82 "Hg15 mi
Weather by CustomWeather, © 2015

See weather overviewHow to use our weather pages